Wind_Speed
3 4 5 6 4 1 1 0 0 1 1 2 1 0 1 2 2 5 6 4 3 2 4 8 8 5 8 8 9 11 11 3 2 4 3 8 21 22 20 22 21 21 21 18 17 16 15 14 13 12 12 11 11 10 9 9 10 11 11 12 12 13 13 13 14 14 14 14 14 15 15 15 16 16 15 16 17 18 19 20 19 17 18 18 18 18 17 17 17 16 16 15 15 16 16 16 17
3 3 4 4 2 1 1 0 1 2 1 3 2 1 2 3 2 6 5 3 2 5 9 10 10 10 12 10 10 14 14 9 7 8 6 19 22 18 23 22 21 22 19 16 15 15 15 14 13 12 11 11 10 10 9 9 11 12 11 12 12 13 13 13 14 14 14 14 14 15 15 15 16 16 16 17 17 18 19 19 18 16 17 18 18 17 17 17 16 15 15 15 15 15 15 16 16
2 2 5 6 2 1 0 0 2 1 2 3 0 2 3 2 4 5 5 5 5 7 9 9 9 8 12 13 12 12 8 8 13 11 9 21 17 18 26 21 21 21 17 17 16 15 15 14 13 12 11 11 11 11 10 10 11 12 11 12 13 12 13 13 13 14 14 14 14 15 15 15 16 16 16 17 17 17 18 18 17 16 17 17 17 17 16 16 16 15 15 15 15 15 15 16 17
5 4 4 5 1 2 1 1 1 1 2 2 1 2 2 3 6 5 5 5 5 6 8 9 8 6 13 15 10 10 9 7 12 12 9 17 20 24 26 22 22 19 17 17 16 16 15 14 13 13 12 12 12 12 12 11 12 12 12 12 12 12 12 13 13 14 14 14 15 15 15 15 16 17 16 16 16 17 17 17 17 16 16 16 16 16 16 16 16 15 15 15 14 15 15 16 16
6 3 2 1 1 1 1 1 1 1 1 2 2 2 2 5 7 5 4 6 6 7 8 8 7 7 12 11 6 6 8 9 12 15 14 19 26 28 26 24 23 20 18 16 16 16 15 14 13 14 13 13 13 12 12 12 12 12 13 13 13 13 13 12 13 14 14 14 14 15 15 16 16 16 16 16 16 16 16 16 16 16 16 16 17 16 15 16 16 16 16 15 14 14 15 16 16
5 3 2 4 2 1 1 1 1 0 1 1 1 2 4 7 6 6 6 6 5 7 9 9 10 11 9 8 6 6 10 12 13 17 20 24 26 28 26 25 22 21 18 16 16 15 15 14 14 15 14 13 12 12 12 12 12 12 12 13 14 13 13 13 13 14 14 13 14 14 15 15 15 16 16 16 16 16 16 16 17 16 16 17 17 17 15 15 15 16 16 15 14 14 15 15 15
6 3 3 4 2 1 1 2 1 1 1 0 1 2 6 7 5 8 7 5 5 8 11 11 12 11 9 8 7 12 17 16 16 19 24 27 27 28 26 24 23 20 17 16 15 15 15 14 15 15 13 13 12 13 13 12 13 13 13 13 14 14 14 13 13 14 14 13 14 15 15 15 15 15 16 16 16 16 15 16 17 17 17 17 17 17 16 16 16 16 15 14 14 14 14 15 14
5 2 1 2 1 1 0 2 1 1 1 1 2 3 4 7 6 7 5 4 5 7 12 13 11 11 11 9 7 14 23 22 23 26 28 29 28 27 25 24 23 20 17 16 16 16 15 15 15 14 14 13 13 13 13 13 13 13 13 13 14 15 14 13 14 14 14 13 14 15 14 15 15 15 16 16 16 16 16 17 17 17 16 16 17 16 15 16 16 16 15 15 14 14 14 14 14
4 2 1 2 1 1 1 2 1 1 1 2 3 5 4 6 5 5 5 4 6 8 13 13 10 11 12 12 10 12 21 28 30 29 28 27 27 26 24 23 22 20 17 15 16 17 16 16 15 14 14 13 14 13 13 13 13 14 13 14 15 15 14 14 14 15 15 14 15 15 14 15 15 15 15 16 17 16 17 16 16 16 17 17 16 15 15 15 15 15 14 14 14 14 13 13 13
4 2 1 1 1 1 1 1 1 1 2 2 4 5 4 5 4 4 4 5 8 11 15 15 11 13 14 12 10 10 20 30 30 26 26 26 26 25 23 21 19 19 17 15 17 17 17 16 15 15 14 14 14 13 12 13 14 14 13 14 14 15 14 14 15 15 16 16 16 16 15 15 15 16 15 16 17 17 17 17 16 17 18 17 15 15 15 15 14 14 14 13 13 13 13 12 12
2 1 1 1 1 1 1 1 2 1 3 3 4 2 3 3 5 5 4 7 11 14 16 14 12 13 13 10 7 14 26 28 26 24 24 25 25 25 24 22 19 18 17 16 17 18 17 16 15 14 14 14 14 13 13 13 15 14 13 14 14 16 16 16 16 16 17 17 17 17 16 16 16 16 16 16 16 16 17 17 17 17 17 16 14 14 14 14 13 13 13 13 13 12 12 12 12
1 1 1 1 2 1 1 3 3 1 4 3 3 3 4 1 7 5 4 9 12 14 12 10 10 11 12 9 6 16 26 25 25 24 24 25 25 26 25 23 21 18 17 16 17 17 17 16 15 14 14 14 14 14 13 14 15 14 14 15 15 16 16 17 17 16 17 17 18 17 16 16 17 16 16 16 16 16 17 18 18 17 16 14 13 13 13 13 12 12 11 11 12 12 11 12 13
1 2 1 0 0 1 2 3 5 3 2 2 2 4 5 3 7 5 4 8 11 11 10 11 11 10 10 8 7 12 18 23 26 25 26 27 26 27 25 22 21 19 18 17 17 18 17 16 15 15 14 14 14 14 15 16 15 15 15 15 16 17 17 17 18 17 17 17 17 18 17 17 17 17 16 18 18 17 17 17 16 15 14 13 12 12 11 11 11 11 12 12 12 12 11 11 13
3 2 1 1 1 1 2 3 5 5 1 2 2 3 4 3 2 1 3 6 8 10 13 14 12 11 10 8 7 7 12 22 27 27 28 27 26 26 24 22 21 20 18 17 18 17 16 15 15 15 15 16 16 16 16 16 16 16 16 16 16 17 17 17 18 19 19 18 18 18 18 18 19 18 18 19 19 17 17 16 15 14 13 12 12 11 10 11 11 12 12 13 12 12 12 12 13
4 1 1 1 0 1 1 2 5 5 3 3 2 2 3 2 1 3 3 5 6 9 13 14 11 8 9 9 7 9 16 25 29 30 28 26 25 24 23 21 21 20 19 18 18 17 16 16 16 16 17 17 17 17 17 16 17 18 17 17 17 17 17 17 18 20 21 22 21 19 17 17 19 19 19 19 17 16 16 16 15 14 12 12 11 11 11 12 12 13 13 13 13 13 13 13 14
2 3 2 0 1 2 2 3 5 4 3 3 1 1 3 2 0 1 2 2 4 8 10 10 9 8 10 10 12 19 23 27 31 30 28 26 24 23 22 19 19 19 19 18 16 16 16 16 17 17 18 18 17 18 18 16 17 19 18 18 18 18 18 18 19 20 23 23 22 21 18 17 17 18 18 18 16 15 15 14 14 13 11 10 10 11 11 12 13 13 13 13 14 15 15 15 14
1 3 2 1 1 2 4 5 5 4 3 3 1 2 4 2 2 1 3 2 4 7 8 9 10 11 12 14 20 26 26 31 34 30 26 24 22 22 20 18 17 17 18 18 16 15 15 16 18 18 17 17 17 19 19 17 18 19 19 18 18 18 18 19 20 21 22 21 22 22 20 18 17 16 16 16 15 14 13 13 12 11 11 10 11 11 12 12 12 12 13 13 13 15 15 14 13
2 2 2 2 2 2 4 5 3 4 6 6 4 4 6 6 3 1 2 3 3 4 7 11 13 13 16 22 27 27 27 33 34 27 22 19 19 18 17 16 16 16 17 17 17 16 15 16 18 18 17 16 17 18 19 18 19 20 19 19 19 19 19 19 20 21 20 19 21 22 21 19 18 17 15 15 15 15 14 12 12 12 12 12 12 12 12 12 12 13 13 13 13 14 14 12 11
2 1 0 2 2 2 3 5 3 3 8 8 7 6 6 7 4 1 2 4 4 4 9 13 15 16 18 23 26 25 25 29 30 25 20 18 17 16 15 16 15 15 16 16 17 17 17 17 17 18 17 16 17 18 19 19 20 20 19 20 20 20 19 18 18 19 19 19 20 20 19 18 18 17 16 16 16 16 15 14 14 13 13 13 12 12 12 11 11 11 11 11 11 12 12 11 9
1 1 1 3 1 1 3 7 7 5 10 10 8 5 5 6 4 2 4 7 6 6 10 14 16 17 17 17 22 24 22 22 25 24 20 18 17 16 15 15 15 15 15 15 16 16 18 18 17 17 17 17 18 19 19 19 20 20 20 20 20 20 19 17 17 17 17 18 18 17 17 17 17 17 16 16 16 17 16 16 15 15 14 13 13 11 10 9 8 7 6 6 7 8 8 7 6
0 1 2 2 3 1 4 7 8 9 11 10 7 7 6 5 3 2 6 7 5 7 12 15 17 18 18 16 18 21 20 19 21 23 22 18 17 16 15 15 16 16 15 16 16 17 18 19 18 17 18 19 19 19 19 19 19 20 19 19 19 18 18 17 16 16 15 16 17 16 16 17 17 17 16 16 17 17 17 17 16 15 14 13 11 8 6 5 4 3 1 1 2 3 4 4 4
3 3 4 4 4 2 4 6 8 11 10 9 8 9 8 4 3 1 4 5 4 8 14 16 16 16 18 16 16 18 18 17 16 20 22 19 16 16 17 16 15 17 17 17 17 18 19 19 18 17 18 19 19 19 19 19 18 19 19 18 17 16 16 16 15 14 15 15 14 14 16 17 17 16 16 16 17 17 16 16 15 13 11 9 7 5 3 2 2 1 2 2 3 5 5 5 4
4 3 4 6 6 4 5 6 8 11 9 9 8 7 7 6 3 1 2 3 5 13 15 17 16 17 19 17 15 15 14 13 15 20 21 21 18 17 19 18 16 18 18 17 18 19 19 18 18 18 18 19 19 19 19 19 18 17 18 18 17 16 16 15 15 15 15 14 14 15 17 17 15 14 14 16 16 15 14 13 11 9 7 5 4 4 2 1 1 1 2 3 3 4 5 5 7
3 3 4 6 7 5 6 6 7 10 10 9 7 7 7 8 4 2 1 5 9 17 15 17 17 19 19 15 13 13 13 13 17 21 23 24 21 20 22 19 17 18 19 18 18 19 19 18 18 19 18 18 19 19 19 19 18 16 16 18 18 17 15 14 14 14 14 14 15 16 15 14 13 12 13 14 13 12 10 8 6 5 4 2 2 3 3 2 3 2 2 2 2 3 4 6 10
4 3 5 3 2 4 5 5 4 7 8 6 8 8 6 6 5 3 3 4 12 17 15 17 17 18 16 13 13 12 12 14 18 23 24 25 24 23 23 21 18 18 20 17 16 18 18 18 19 19 19 18 18 18 19 19 18 17 17 18 18 18 16 14 14 14 14 14 13 13 13 13 13 12 12 12 10 9 8 7 5 5 4 2 3 4 5 4 3 3 2 1 2 1 4 7 8
3 4 4 4 4 3 2 5 7 5 4 3 7 9 5 3 4 1 4 4 14 16 16 17 15 16 14 13 13 11 11 13 17 23 24 24 26 25 23 22 20 21 21 16 16 18 18 19 20 20 19 18 17 17 18 18 18 18 19 18 16 16 15 14 15 16 16 15 13 13 14 12 11 12 11 11 10 8 8 7 6 6 5 5 5 5 5 5 4 4 3 2 3 3 5 6 7
5 8 7 7 4 3 7 6 4 4 4 2 3 9 5 3 3 2 5 3 14 17 16 16 15 14 13 13 11 10 12 11 16 23 24 22 23 24 23 23 23 24 22 18 17 17 18 21 21 21 20 18 17 16 16 17 18 18 17 16 16 16 16 15 16 16 15 14 13 13 14 11 10 11 10 10 10 8 8 8 8 9 9 7 7 7 5 4 4 3 2 2 3 3 3 2 2
11 11 9 8 6 7 7 5 3 1 4 2 3 8 5 3 2 6 7 5 12 17 16 16 14 12 13 13 10 9 10 13 20 23 21 20 20 21 22 23 24 23 21 20 19 19 20 20 20 19 19 18 16 15 15 16 17 16 15 16 17 18 17 14 14 15 13 12 11 11 14 13 10 10 10 9 9 9 8 9 10 9 9 7 7 7 6 4 3 2 1 1 2 3 2 3 1
11 9 6 7 6 5 3 4 0 3 1 6 7 7 3 2 3 9 8 4 10 15 15 15 13 11 12 11 8 7 9 14 18 19 21 21 21 22 22 23 24 22 21 20 19 21 21 19 18 18 18 17 17 15 15 17 16 15 16 17 17 17 15 14 14 15 14 13 13 13 16 15 11 10 10 10 9 10 10 10 10 8 8 6 6 7 6 5 3 1 1 1 2 4 4 4 4
9 6 5 6 4 2 2 3 1 2 2 1 4 5 1 3 3 8 7 5 11 14 13 13 11 11 10 8 8 8 9 13 15 18 21 22 23 24 24 25 24 22 22 21 20 20 19 17 17 18 18 17 17 17 15 16 16 14 15 15 15 15 15 14 14 15 14 13 14 15 17 15 12 11 11 11 10 10 11 10 9 8 7 6 6 6 6 7 6 3 2 1 3 5 5 5 6
7 5 3 3 1 1 2 1 1 2 2 6 4 4 3 4 6 8 7 8 13 13 12 12 11 10 9 8 8 7 8 12 17 20 22 23 24 23 23 24 25 24 24 24 21 20 18 17 17 18 19 18 17 17 16 16 17 16 15 13 14 15 15 13 13 14 13 13 14 14 15 14 11 11 11 10 9 9 10 9 8 8 7 6 6 7 7 8 8 6 4 3 4 6 6 6 6
3 3 1 1 1 2 2 1 2 1 1 5 4 3 3 4 8 8 7 10 13 12 12 12 12 11 10 9 8 7 8 12 19 21 22 23 24 24 24 24 26 25 25 25 23 21 19 18 18 19 19 18 17 16 16 16 17 16 15 14 15 15 13 12 13 13 12 13 14 13 14 13 10 10 10 10 9 9 9 9 8 7 7 6 6 6 7 8 8 7 6 6 7 8 8 6 4
1 2 2 1 2 3 2 2 4 2 2 1 2 3 3 4 8 8 7 9 11 11 11 12 13 12 10 9 8 8 7 10 15 17 21 25 24 26 25 25 26 25 24 26 25 23 21 19 19 19 19 18 17 17 17 17 16 15 15 15 16 15 13 13 14 12 10 11 12 13 14 13 10 7 8 9 9 9 9 9 7 6 5 6 7 7 8 7 7 6 6 7 8 10 10 7 4
1 2 3 2 3 4 3 3 4 3 3 2 2 3 4 5 8 8 7 8 10 10 11 12 12 10 10 8 8 9 7 8 10 13 21 25 25 26 25 25 24 24 25 25 24 24 22 21 20 19 19 17 16 18 18 17 16 15 14 15 16 16 14 15 15 13 12 10 10 12 12 12 10 7 8 8 10 10 9 8 6 5 5 5 6 8 8 7 6 5 5 6 7 9 8 7 5
3 3 3 3 4 3 3 3 5 6 1 1 2 2 4 7 9 8 7 7 7 9 10 12 11 10 10 8 9 9 8 8 10 14 22 26 25 25 25 25 24 23 24 24 24 24 22 23 21 19 19 17 16 18 17 17 16 15 14 14 14 16 15 15 15 15 14 11 9 11 11 12 10 8 9 9 11 12 9 8 5 5 5 5 5 6 8 8 6 5 6 6 8 9 6 4 5
7 6 5 5 4 2 3 2 6 8 5 2 3 4 6 8 8 8 8 6 6 8 8 10 10 10 9 8 9 9 8 9 12 17 24 26 25 25 25 26 25 23 23 24 25 24 23 25 23 20 19 18 18 17 17 18 16 14 14 12 13 16 16 15 15 15 14 10 9 11 10 12 11 9 10 9 11 11 9 8 5 5 6 6 6 6 7 8 6 5 6 8 9 10 7 3 3
10 8 6 5 5 3 3 2 5 5 5 5 5 4 7 10 9 8 8 6 6 8 8 9 10 9 8 8 10 9 7 10 15 19 24 26 25 25 25 26 25 23 24 25 25 24 25 26 24 22 20 19 19 19 18 17 14 14 15 13 14 16 16 15 16 15 11 8 10 11 9 10 11 10 9 9 10 9 9 8 4 4 5 6 6 6 6 6 5 5 7 8 10 13 11 6 3
11 8 6 5 4 4 2 1 3 2 3 4 3 3 6 5 6 8 8 7 7 7 7 8 12 11 7 9 12 9 6 11 13 16 22 26 26 24 24 25 25 25 25 25 25 26 26 25 24 23 20 19 21 20 18 15 14 15 16 15 15 16 16 15 16 15 11 10 11 10 8 10 11 10 8 9 10 9 7 7 5 3 4 5 5 4 4 3 4 6 7 8 10 12 10 8 6
10 7 6 4 3 5 5 0 3 3 2 2 2 2 2 3 3 2 2 3 3 1 0 2 11 13 8 9 12 9 7 11 10 11 19 25 25 24 24 23 24 27 25 23 24 25 25 24 24 23 20 20 20 18 16 15 15 16 16 15 15 15 15 14 14 14 13 13 12 9 8 9 10 9 8 8 8 7 6 6 6 5 4 3 2 2 3 2 3 5 5 7 10 10 7 7 8
7 7 4 4 5 5 3 3 6 5 1 4 3 1 1 2 3 3 4 3 3 4 6 5 5 11 11 10 11 10 8 11 11 10 14 22 24 23 23 22 24 27 24 23 24 24 24 24 24 23 21 19 18 17 15 16 16 15 15 14 14 14 13 12 14 14 13 13 13 11 9 8 9 9 9 8 6 5 6 6 5 5 5 3 3 3 3 2 3 4 5 6 9 10 9 6 6
6 8 4 5 7 3 4 6 8 5 3 6 6 2 1 2 2 2 3 5 5 4 6 7 2 4 9 10 11 11 9 10 12 11 11 18 22 22 23 23 24 25 24 24 25 24 23 25 24 23 21 20 18 17 17 16 16 15 15 14 14 14 13 12 15 14 13 14 13 12 11 9 9 9 9 8 5 5 6 6 5 6 5 4 4 3 2 2 2 3 6 7 7 9 10 8 6
5 5 6 9 9 7 11 10 7 4 3 6 5 3 2 2 2 3 1 2 4 3 3 6 5 3 3 9 12 11 9 9 11 11 11 16 21 23 23 23 24 23 23 25 25 23 24 25 24 23 22 21 18 18 17 16 16 15 15 15 14 14 14 13 14 14 13 14 12 11 10 10 10 8 8 8 6 6 6 6 5 5 5 4 3 2 3 2 2 3 5 6 5 7 8 8 9
3 6 11 12 11 11 14 13 6 2 2 4 3 1 2 2 3 6 4 2 4 3 2 6 5 4 2 5 11 11 9 10 10 10 11 16 20 22 22 24 24 23 22 24 24 23 26 25 23 23 22 22 20 18 18 17 16 15 16 16 14 15 15 13 12 13 13 13 11 10 10 10 11 9 9 8 7 7 7 6 5 5 4 4 3 2 2 2 3 4 4 4 3 5 6 7 9
3 8 14 15 14 13 13 9 5 3 3 3 2 2 1 2 4 7 6 5 4 5 5 6 6 5 4 4 8 11 10 11 10 9 10 15 20 22 23 24 25 24 24 25 24 24 28 26 24 23 22 22 21 19 18 18 17 16 15 15 14 14 14 12 12 14 13 12 12 12 11 10 11 10 9 7 6 7 7 6 5 5 4 4 3 1 1 2 4 4 2 2 3 4 6 6 6
3 10 14 13 14 16 13 7 4 4 4 3 4 3 1 2 3 6 7 6 6 7 8 8 7 7 6 5 7 10 11 11 11 10 10 14 21 24 25 25 25 25 25 25 24 26 29 27 25 24 22 23 22 20 19 18 18 17 15 15 14 13 12 12 13 14 13 12 14 14 13 12 11 10 10 8 6 7 7 6 6 5 4 4 3 1 2 4 5 4 2 3 4 2 2 3 4
7 13 13 10 11 12 10 6 5 4 2 4 8 7 1 1 3 6 7 7 9 9 8 9 8 8 8 7 6 7 9 10 10 10 11 16 23 25 25 25 24 25 27 25 25 28 30 28 26 24 22 23 22 20 20 18 18 18 16 16 16 14 14 13 14 14 12 13 14 15 14 14 12 11 11 9 7 7 6 6 7 5 3 3 3 2 3 4 4 3 2 3 3 1 0 1 2
10 11 10 8 5 4 5 3 4 3 0 2 8 11 5 2 3 6 8 8 10 10 8 9 10 9 10 8 7 6 7 9 9 9 11 18 25 27 26 26 24 25 27 25 25 29 30 28 26 25 23 24 22 21 20 18 19 19 17 17 17 16 16 15 15 14 13 13 14 14 15 14 11 11 11 10 9 9 7 5 7 6 4 4 3 3 3 3 5 5 2 3 3 2 2 1 0
11 7 9 8 4 4 4 4 2 1 1 2 2 8 6 4 3 6 9 7 8 11 11 12 13 11 11 10 9 7 6 8 10 8 9 15 21 24 25 25 24 26 28 26 27 30 29 28 27 25 24 25 23 21 21 19 18 19 17 17 17 17 17 15 16 16 14 14 13 14 15 14 11 11 11 10 8 9 8 6 7 6 6 5 4 3 3 3 5 6 5 4 3 2 2 1 1
8 5 7 6 2 1 2 1 1 1 2 1 2 5 5 5 3 5 10 10 10 12 11 12 14 13 12 11 10 8 6 8 10 8 8 11 14 18 24 24 22 25 28 27 28 30 29 28 28 26 24 26 25 23 21 19 18 18 18 17 17 17 16 15 17 17 16 15 14 14 15 14 12 12 12 10 8 9 9 8 8 7 6 6 6 5 4 3 3 6 6 4 3 3 2 1 2
7 5 5 4 3 3 1 1 1 0 1 2 1 5 4 4 2 3 7 10 11 13 11 11 13 13 14 12 10 8 7 8 10 9 8 8 12 17 22 23 21 24 28 28 29 29 28 28 28 27 24 25 26 24 22 20 18 18 18 17 17 16 16 16 16 17 15 14 14 14 13 12 11 12 12 10 9 10 10 8 8 8 7 7 7 6 5 4 4 5 4 3 2 3 2 2 3
6 5 4 4 3 4 3 3 2 0 1 2 2 4 3 2 2 2 3 5 8 12 12 12 12 12 12 10 9 9 8 7 8 9 8 9 14 18 22 24 21 23 27 28 30 30 28 28 28 27 25 26 27 25 23 21 19 18 17 17 17 15 15 15 15 15 14 13 13 13 13 11 10 10 11 11 10 10 10 8 8 8 6 6 7 7 6 5 5 5 4 3 3 3 3 4 4
4 5 4 4 5 5 3 3 4 3 1 2 2 2 2 2 5 6 4 5 4 10 13 13 13 14 12 10 10 9 8 8 8 9 8 11 16 18 21 23 21 23 27 27 30 32 30 29 29 27 25 26 27 26 24 23 20 18 17 18 18 15 14 14 15 14 13 12 11 12 12 11 10 10 10 10 10 11 10 8 8 7 6 6 6 6 6 6 5 6 6 6 5 4 4 5 5
2 4 4 5 5 8 4 2 3 2 1 1 1 2 1 1 5 5 3 4 2 5 10 13 13 14 14 12 11 10 9 9 9 9 8 10 16 18 21 24 22 23 24 25 30 33 31 30 30 28 25 25 26 25 25 24 21 20 18 18 18 17 15 15 16 15 13 12 11 11 11 11 10 10 10 10 10 10 9 8 9 8 6 6 6 6 8 7 6 6 6 5 5 4 4 6 6
3 4 5 4 3 5 3 3 2 2 1 0 2 2 1 1 3 3 3 4 3 2 6 12 13 14 15 13 12 12 10 8 9 10 10 11 15 17 20 23 24 25 24 26 31 33 32 31 30 29 26 25 25 24 24 24 22 21 19 18 18 18 17 16 15 14 13 14 14 12 12 11 10 10 11 10 9 10 10 9 10 9 7 7 7 7 8 8 7 7 6 6 5 5 5 6 6
5 3 3 4 3 2 2 2 3 3 2 0 3 3 2 2 3 3 4 6 5 3 4 8 12 13 13 12 12 12 10 7 7 7 6 9 14 18 22 24 24 24 24 27 31 30 31 30 29 29 26 25 25 23 23 23 22 21 20 19 18 17 16 15 14 13 13 14 15 13 12 11 10 11 12 11 11 11 11 10 10 10 8 8 8 8 9 9 8 7 7 7 6 6 7 7 6
6 3 1 3 4 3 2 1 2 3 2 1 1 2 2 3 4 4 7 7 6 5 4 4 9 12 11 10 11 12 9 6 6 5 4 2 5 8 16 22 25 25 25 29 31 29 30 30 28 28 25 24 25 23 22 23 23 21 20 20 19 17 16 16 15 15 15 15 14 13 12 11 11 12 13 12 12 12 12 11 11 10 9 9 10 10 9 10 10 9 8 7 7 7 8 8 7
4 2 2 2 3 3 3 1 2 3 3 3 2 1 4 3 3 5 7 6 5 6 4 2 3 8 10 11 11 10 4 5 4 5 4 5 9 10 8 7 11 17 21 25 29 29 29 29 28 28 26 24 25 24 23 23 22 20 20 21 20 18 17 17 17 17 16 16 15 15 14 13 13 13 13 13 12 12 12 12 11 11 10 9 10 11 9 9 10 9 8 8 7 7 9 9 8
4 3 3 3 3 4 3 1 3 3 4 4 4 2 4 3 1 2 4 5 5 5 4 2 2 3 9 10 8 7 8 7 5 7 6 4 10 12 11 8 7 14 17 14 19 27 28 28 28 27 26 25 24 25 24 23 23 21 20 21 21 20 19 18 18 18 17 15 15 15 14 14 15 15 14 13 12 12 12 12 12 11 12 11 10 11 11 10 11 10 9 8 8 8 9 9 8
Wind_Direction
236 183 158 131 110 160 225 94 40 335 71 74 63 5 353 262 220 92 82 74 65 112 108 93 92 84 87 96 106 68 35 39 151 127 125 143 148 149 141 142 146 144 143 141 141 142 139 135 127 125 123 122 123 122 121 117 115 109 105 102 103 108 109 108 110 113 114 115 114 113 113 115 119 121 122 118 115 116 118 119 114 109 110 111 109 108 106 105 106 108 107 105 104 104 104 106 107
214 165 177 157 144 215 204 246 85 13 42 72 27 334 257 255 123 101 120 132 109 104 97 97 95 88 90 89 82 65 42 26 82 95 106 131 137 143 142 145 146 144 143 143 146 143 138 131 124 122 121 121 121 121 121 120 116 111 108 109 110 111 113 112 112 115 115 116 116 114 115 117 119 121 123 119 115 117 120 118 113 109 110 111 110 111 110 108 108 107 106 105 104 104 105 107 110
204 201 215 178 171 272 158 323 80 43 38 75 248 265 239 189 101 90 121 127 114 103 99 91 80 79 79 68 58 73 70 37 78 90 111 128 129 142 144 145 144 142 142 146 149 145 137 130 125 122 120 121 119 117 117 119 119 116 114 114 115 114 116 117 116 116 117 119 118 117 117 118 119 122 125 119 115 117 120 117 113 111 110 110 110 111 111 110 109 107 106 105 104 104 106 108 113
208 239 257 183 162 335 31 22 57 71 84 107 186 260 255 132 102 93 104 105 95 88 89 83 74 80 85 86 85 86 94 70 87 99 119 135 139 144 143 143 142 139 144 151 152 147 136 128 126 123 121 118 115 116 116 119 120 120 122 120 117 117 117 118 119 119 120 120 118 120 122 121 122 124 124 120 116 117 119 117 115 113 112 110 109 109 110 110 108 107 106 106 107 106 107 110 116
201 219 312 140 113 357 26 42 45 66 134 162 154 261 245 119 110 111 84 82 86 88 98 101 94 91 86 93 101 91 113 111 106 110 118 134 140 143 142 142 142 141 149 156 153 144 131 126 124 122 120 117 116 116 114 115 118 118 124 125 120 117 116 118 121 123 124 122 120 124 125 123 124 125 124 121 119 119 119 120 118 116 114 113 110 109 110 112 111 110 109 109 109 109 110 115 119
176 184 31 75 86 16 358 53 64 80 232 162 157 254 161 128 126 119 94 84 74 84 99 97 97 98 89 87 91 111 131 122 114 118 123 131 137 141 141 139 140 142 150 155 148 134 125 123 119 118 115 115 113 112 112 112 115 112 115 120 122 120 120 122 124 126 127 126 123 123 125 124 124 126 124 122 122 121 122 123 120 118 116 113 112 112 113 114 115 114 113 113 112 112 113 118 121
160 158 53 60 70 67 107 88 85 228 227 162 269 240 140 133 131 117 115 106 73 80 93 89 100 103 93 97 93 103 114 117 120 125 129 132 134 137 138 138 137 139 145 147 137 124 121 119 116 116 115 114 111 111 114 114 113 109 107 111 122 126 123 125 127 128 129 129 126 123 124 125 126 128 127 126 125 124 125 123 119 118 116 113 111 112 114 115 116 116 116 117 116 117 117 121 122
164 117 57 64 48 49 112 99 131 256 220 207 262 250 154 138 132 125 137 129 102 94 98 97 101 97 92 99 95 103 110 115 122 126 131 134 135 134 136 135 133 134 138 136 128 122 118 117 116 115 116 114 112 113 113 114 113 111 109 107 117 125 124 127 129 129 130 129 127 123 123 126 127 129 132 130 127 127 125 122 121 121 116 111 112 112 113 113 113 115 117 120 121 122 123 124 123
127 46 99 75 41 359 42 74 130 297 269 214 262 252 194 137 122 122 128 113 113 101 99 102 99 98 99 97 97 104 109 115 123 128 134 135 133 132 133 133 132 134 134 129 124 120 118 116 114 113 115 114 114 113 111 114 112 111 111 111 117 124 127 129 127 128 130 127 125 124 125 127 127 129 132 130 130 131 126 124 124 122 116 113 113 112 113 112 112 114 117 121 124 126 126 124 121
74 17 105 71 64 33 69 87 100 356 282 244 266 233 168 126 102 89 106 104 106 96 94 96 93 102 105 102 100 108 114 121 126 132 137 134 131 131 131 130 132 133 130 126 121 117 117 116 113 115 115 114 114 111 111 115 115 114 115 120 124 127 129 128 126 129 129 128 127 126 127 127 127 129 130 129 130 131 127 125 122 117 115 115 113 112 113 112 113 117 119 121 123 127 127 125 122
76 3 103 22 76 42 153 143 95 348 297 294 284 220 102 100 90 70 95 97 94 98 105 103 102 106 105 103 98 120 124 125 127 132 134 129 129 131 129 128 128 130 129 126 122 119 118 117 116 117 117 116 114 112 111 115 118 118 119 124 127 129 129 127 126 129 130 129 128 126 128 129 128 129 129 129 129 129 126 123 119 117 115 114 112 112 112 113 115 118 119 121 123 126 128 126 124
137 105 91 353 47 341 178 124 130 210 289 303 319 16 359 45 101 103 115 104 108 114 118 114 116 116 107 104 111 132 129 126 129 128 126 122 123 126 126 127 127 131 132 128 125 123 119 119 120 120 120 118 115 113 111 114 117 119 121 123 125 126 126 126 125 126 129 128 127 125 127 129 129 129 128 129 127 127 126 121 119 117 113 112 114 113 112 114 115 116 118 123 126 128 128 126 126
126 123 127 95 127 176 153 129 141 170 275 294 316 356 344 48 108 136 135 118 128 124 113 114 124 123 109 110 127 133 128 131 132 126 123 122 121 121 122 124 127 130 130 127 124 119 120 125 127 123 119 116 111 107 108 114 117 118 120 122 124 124 124 125 125 125 125 125 124 125 127 128 128 126 127 127 123 123 123 120 119 116 114 116 120 118 117 117 115 116 118 122 127 128 127 126 130
109 165 143 118 248 125 125 124 146 164 193 280 313 349 359 44 81 50 112 113 116 122 121 125 129 118 113 123 126 126 134 134 128 122 122 119 121 122 119 123 128 129 128 125 120 120 127 131 126 120 114 111 110 108 110 115 117 119 119 121 124 124 124 124 124 124 123 123 122 124 128 128 126 124 124 122 119 121 122 120 120 117 117 121 122 121 121 120 118 116 116 121 124 126 127 127 133
124 167 88 107 185 93 119 148 167 165 172 246 311 30 38 25 340 21 118 120 108 128 123 127 132 121 133 144 132 135 142 132 120 119 120 116 120 121 119 125 131 132 129 124 123 129 133 128 123 120 112 106 108 113 113 113 116 118 117 119 122 123 122 121 121 122 123 123 122 123 125 124 122 123 123 120 119 121 120 118 115 115 119 124 124 123 122 120 117 114 116 119 119 118 121 126 130
132 124 81 293 172 131 156 168 180 164 172 211 337 101 84 25 317 69 214 150 121 130 120 138 144 129 140 140 130 137 138 126 118 118 119 117 118 117 116 122 132 134 128 123 123 128 128 125 124 120 113 107 108 113 112 111 115 115 115 117 120 121 120 119 120 121 123 125 125 123 121 118 115 116 117 116 116 116 113 111 111 115 121 123 124 125 123 119 117 116 118 117 116 115 118 124 125
104 99 86 255 215 173 166 170 182 150 153 164 142 201 127 117 257 297 304 1 105 119 119 144 135 128 134 131 132 137 133 122 120 119 116 118 117 115 114 119 131 134 130 126 122 124 125 125 125 119 114 111 111 111 110 112 115 115 115 117 117 118 118 118 120 120 122 125 125 122 121 119 115 113 112 112 114 115 113 114 119 126 128 126 127 126 123 120 119 118 118 116 116 119 123 125 125
81 72 95 238 235 181 166 174 185 127 143 161 171 204 140 146 216 291 348 51 101 95 114 129 125 125 125 129 133 135 132 124 123 120 117 120 120 120 120 124 130 133 136 133 130 133 132 129 126 120 116 116 116 115 113 114 116 116 117 118 118 117 117 117 118 118 119 121 120 120 122 123 124 125 125 126 128 129 128 130 132 131 129 128 128 127 125 123 123 122 119 117 119 124 130 130 128
89 77 85 277 252 150 160 172 213 153 149 156 172 192 151 156 186 167 123 140 160 128 124 124 120 122 125 132 132 136 140 129 125 124 125 128 128 130 129 131 132 136 143 142 140 140 136 132 127 124 123 122 123 120 119 120 119 120 121 121 121 118 116 116 118 120 121 119 119 121 124 126 127 129 131 131 132 132 131 130 127 125 127 128 127 126 125 125 126 125 122 122 124 129 136 136 134
91 93 64 305 307 123 168 183 211 182 147 151 169 172 149 172 168 143 158 161 183 156 134 128 126 132 134 133 133 141 143 133 133 132 132 134 133 133 132 137 137 138 149 152 147 141 138 134 129 129 128 127 126 122 122 124 123 123 124 122 122 120 118 118 120 121 122 121 122 125 126 125 123 124 126 126 127 128 127 125 123 125 127 127 125 120 115 114 115 115 117 125 129 133 138 140 142
185 147 165 247 280 240 169 193 200 161 145 154 157 136 148 185 142 142 172 165 188 154 135 133 135 138 135 136 142 145 139 140 145 135 132 134 133 133 133 138 137 141 154 156 150 145 142 137 133 133 133 131 128 126 127 127 127 126 125 124 124 123 122 125 124 122 123 123 125 130 130 126 124 127 128 127 129 128 127 127 125 126 127 126 124 118 106 93 86 81 75 158 179 180 166 157 158
147 186 176 181 237 239 174 204 180 146 142 147 143 139 150 152 106 186 173 172 187 138 134 136 136 137 136 143 146 141 141 151 147 131 130 132 131 132 133 134 137 147 153 154 151 148 146 142 138 135 136 135 131 131 132 132 132 131 130 130 129 128 129 131 131 131 127 122 125 132 131 125 124 126 128 130 131 130 130 129 128 129 130 130 125 119 103 58 39 15 302 270 259 246 224 203 200
141 158 167 190 216 203 176 198 165 140 139 146 150 147 136 116 110 113 147 210 156 127 134 136 134 136 138 144 144 142 151 154 140 131 128 130 133 136 138 137 142 151 153 153 151 149 150 147 143 137 135 135 134 136 135 135 136 135 134 136 134 132 133 132 134 134 126 125 133 135 129 123 122 125 130 132 131 131 132 132 131 129 127 123 107 105 126 204 177 195 246 255 270 253 230 205 190
103 136 184 210 213 186 165 178 164 147 143 149 152 140 132 132 135 108 205 246 134 125 133 133 134 136 140 146 146 150 155 150 140 134 130 135 141 143 147 147 149 155 153 151 152 155 155 152 147 142 139 136 135 137 136 135 133 136 139 141 140 135 137 139 141 140 134 137 139 133 128 125 129 136 138 134 131 134 138 143 143 132 129 101 79 102 108 164 172 162 193 208 269 252 205 170 159
85 155 197 182 156 175 165 152 137 136 134 137 137 134 131 130 131 125 230 224 127 125 132 133 137 140 147 150 152 157 152 151 144 133 130 139 144 145 152 153 154 158 153 150 156 159 157 154 151 147 146 140 135 136 137 134 133 138 139 141 140 135 138 143 144 146 145 147 141 131 129 131 138 142 142 137 138 148 151 158 162 146 144 112 115 120 91 94 125 120 125 111 357 318 185 165 156
98 153 167 99 106 158 112 69 52 61 82 96 119 120 100 72 96 116 267 190 127 127 133 138 143 148 154 150 157 161 149 156 146 130 128 136 141 144 152 154 157 159 154 155 161 158 153 153 154 151 149 144 138 138 139 137 139 142 139 141 141 136 141 145 144 148 151 153 150 142 136 135 137 139 143 143 145 153 152 150 140 126 124 112 120 121 90 82 84 87 81 60 47 64 146 163 172
120 117 102 89 103 57 52 63 60 75 85 55 115 114 99 24 68 167 266 203 133 132 138 143 149 155 152 149 162 156 149 154 133 125 128 135 141 146 151 153 157 157 155 160 160 153 150 150 152 153 152 147 140 140 141 140 142 144 142 144 145 142 145 145 141 144 148 148 150 151 150 145 134 132 137 137 138 135 133 131 117 114 119 113 118 121 104 93 79 65 47 48 61 64 121 142 183
122 109 83 66 54 33 60 115 169 148 99 147 151 103 78 15 110 180 224 212 140 138 145 149 153 154 148 154 160 147 150 143 128 127 132 139 143 145 146 148 152 154 157 162 156 151 151 147 147 152 154 151 148 145 141 143 145 145 144 144 144 144 144 143 140 143 145 143 145 154 158 148 131 131 130 129 136 127 121 122 116 114 117 115 119 119 108 109 105 84 28 359 15 354 336 360 21
125 119 94 70 62 41 71 122 151 324 88 155 139 100 54 349 166 184 208 212 146 142 149 151 153 150 150 158 146 142 151 137 130 130 135 141 142 142 141 143 148 151 157 159 152 150 151 149 150 151 150 150 157 153 141 142 143 140 143 145 143 142 143 143 143 146 147 137 128 132 142 140 134 141 139 135 137 130 124 120 117 113 112 117 120 113 97 93 104 126 120 339 358 349 345 27 98
129 119 109 97 79 53 60 81 35 331 344 108 107 114 210 284 217 201 216 197 150 145 151 153 154 153 153 148 137 148 149 135 131 131 137 140 140 142 142 144 148 150 155 157 155 152 150 154 154 150 146 145 152 153 145 143 145 143 142 145 149 150 150 149 147 148 148 138 128 125 130 131 131 136 139 140 137 131 126 119 120 115 108 114 114 110 93 82 81 79 77 25 16 13 17 61 109
138 115 99 89 74 96 68 53 191 157 344 352 30 131 199 250 228 226 221 174 151 148 155 157 154 152 146 139 144 147 143 137 130 132 139 139 139 142 142 144 147 150 154 157 159 156 152 152 149 148 148 144 146 151 152 148 149 150 148 147 148 150 150 152 155 152 146 142 139 134 134 134 133 134 134 137 137 134 131 124 121 116 107 101 97 95 86 82 79 74 78 51 27 25 28 58 118
145 120 63 24 88 111 69 328 262 162 8 356 24 128 178 223 217 227 211 161 152 153 160 158 149 149 145 143 152 143 146 140 131 140 146 140 140 139 139 143 146 152 155 155 155 152 151 151 149 151 152 150 151 152 150 146 146 148 151 148 142 142 143 142 147 149 146 147 149 144 140 136 132 136 135 134 134 132 128 121 113 108 99 88 85 82 76 77 76 77 75 46 33 34 26 31 111
253 122 121 142 137 130 117 221 247 226 183 32 45 133 157 205 207 209 197 162 155 159 161 153 146 149 148 150 154 145 155 143 137 156 149 138 140 138 141 147 148 154 153 151 152 151 152 151 151 153 152 154 153 151 148 148 152 150 149 149 146 146 146 142 138 142 146 148 149 146 144 140 135 136 134 136 140 132 122 116 109 101 93 83 85 77 67 64 66 77 70 47 30 28 29 35 92
263 105 116 129 143 149 151 184 208 207 229 211 140 166 170 175 186 188 190 171 157 164 161 149 149 152 152 157 154 151 162 145 149 166 146 136 138 140 145 146 146 150 148 151 152 150 151 150 152 152 151 153 150 152 151 150 153 151 151 154 153 152 151 150 146 149 154 151 144 143 146 145 142 138 129 133 140 139 131 124 117 103 96 90 87 74 64 60 58 61 49 41 20 11 27 50 78
159 145 121 117 137 157 181 169 145 150 192 352 93 170 178 160 171 179 189 185 161 168 161 148 153 152 155 159 149 158 164 143 159 162 139 134 138 140 143 141 143 147 148 151 148 148 152 151 153 152 154 155 147 149 148 148 153 150 156 158 151 151 151 150 149 152 155 157 152 146 149 149 146 136 126 127 133 135 134 126 121 106 91 81 84 71 61 54 45 40 22 18 16 13 22 48 56
146 132 119 131 134 147 221 169 141 149 128 104 143 166 177 165 169 177 185 193 173 174 163 150 154 151 159 158 148 168 163 143 164 156 137 137 140 140 141 141 146 149 149 150 148 152 154 150 151 151 156 155 146 147 148 154 159 151 156 157 147 150 151 148 149 152 156 165 159 147 149 152 153 139 122 125 131 134 134 124 119 108 88 74 83 78 60 46 29 23 14 8 7 14 28 59 65
127 111 108 132 139 165 229 163 142 151 126 163 188 163 176 170 167 180 184 191 191 185 170 153 150 153 165 153 151 177 163 147 164 153 139 139 140 142 144 145 148 150 150 150 148 149 148 147 150 151 156 158 152 153 154 160 164 153 152 149 147 155 156 153 151 149 155 163 153 149 156 157 159 151 133 130 131 134 134 124 112 100 93 86 90 86 68 45 19 8 8 13 9 10 24 49 89
123 115 115 129 153 146 136 88 117 61 60 161 183 163 182 176 170 182 177 189 203 188 171 157 148 155 173 153 155 183 163 147 161 151 140 138 141 146 148 147 149 148 148 148 146 146 147 150 153 153 158 163 159 157 158 167 169 159 153 142 143 158 163 163 159 150 153 160 153 154 163 158 162 161 149 138 131 130 129 121 115 109 112 107 98 91 84 57 12 10 8 14 17 16 26 46 68
122 123 126 131 147 108 88 7 126 72 30 121 105 144 168 332 301 233 159 200 222 148 345 176 151 158 176 159 157 180 166 149 158 153 141 141 145 149 149 149 148 147 148 149 147 148 152 156 157 157 159 162 162 162 166 170 165 160 160 147 140 154 161 163 162 152 154 163 158 160 166 158 160 162 157 148 133 127 129 132 127 118 117 106 95 105 101 80 12 12 9 8 20 32 46 60 62
135 130 127 145 157 134 128 202 148 113 77 128 113 83 113 333 294 300 343 337 329 354 333 320 154 166 175 163 160 172 171 155 156 160 146 144 148 148 152 154 148 149 154 155 152 153 157 162 161 159 161 165 167 169 170 168 164 163 166 158 145 146 149 154 158 150 153 164 159 163 172 163 153 150 150 149 139 133 138 148 147 128 114 95 109 131 109 67 23 23 31 22 23 31 36 54 62
125 109 110 156 161 148 114 141 141 112 92 138 137 115 208 201 186 254 322 340 331 347 331 320 317 185 173 160 163 166 170 160 156 165 154 146 149 150 156 156 151 156 161 159 159 159 161 163 162 163 165 166 168 171 169 163 163 164 164 160 148 144 143 150 157 152 155 165 164 167 173 162 147 143 147 152 159 161 144 148 164 147 124 109 117 109 53 32 37 37 38 33 30 28 24 37 56
98 111 157 159 148 125 115 132 142 117 135 168 166 144 189 208 194 223 246 337 304 342 328 299 310 292 190 162 165 165 166 163 158 167 159 148 150 153 156 155 155 162 165 163 164 164 165 164 163 166 169 166 166 169 167 161 160 161 163 162 155 152 150 154 162 162 163 166 166 169 168 158 153 154 163 168 174 177 160 154 161 147 136 137 123 74 38 46 84 73 45 38 36 30 28 37 44
109 163 163 147 137 130 133 145 147 117 145 171 198 178 134 174 216 229 202 169 263 279 268 272 290 298 275 174 167 163 166 166 163 171 162 151 152 154 156 157 160 167 169 167 169 169 168 167 167 170 173 169 168 168 164 161 159 157 160 163 162 159 157 161 169 168 165 166 168 167 159 158 162 167 174 174 172 173 168 165 158 146 158 161 141 97 58 63 111 101 55 33 26 28 37 38 36
136 160 148 140 137 135 140 143 122 102 95 97 239 265 112 182 198 207 195 166 228 256 242 248 260 255 266 235 178 163 165 171 168 173 167 155 154 156 159 162 164 168 171 171 173 172 167 169 172 172 175 172 171 171 164 163 162 154 153 156 158 160 160 163 167 166 164 165 165 161 158 163 167 171 177 171 167 170 168 171 170 159 166 172 163 140 72 131 139 124 89 55 56 42 40 36 34
169 160 148 147 143 138 140 133 103 113 120 131 232 248 230 217 162 165 182 183 208 229 226 225 233 233 243 250 201 169 166 173 171 172 171 159 156 158 162 166 167 168 171 174 175 170 166 170 172 173 176 173 173 175 167 166 164 157 158 159 157 161 158 153 158 165 170 168 163 162 169 174 171 174 176 169 170 174 168 171 171 156 146 158 163 140 127 151 144 129 141 120 96 50 29 48 50
165 161 147 141 136 132 132 128 109 105 127 185 202 201 190 238 168 160 179 202 211 210 215 217 215 219 227 234 221 189 172 173 172 172 171 161 159 161 163 167 170 170 173 176 172 167 166 169 171 173 176 175 177 177 170 170 169 166 169 167 161 161 157 149 152 160 166 168 164 165 173 177 177 181 178 177 181 174 170 174 166 154 151 163 162 152 156 165 160 152 171 154 143 217 219 97 61
140 154 135 111 92 82 84 79 87 101 282 225 193 192 197 252 201 184 192 204 204 197 201 208 204 209 219 223 222 214 188 174 173 172 168 161 159 162 164 169 176 173 172 173 166 163 166 169 172 174 176 177 178 175 171 173 174 172 174 171 166 166 165 157 153 155 161 165 163 167 174 176 178 179 176 185 186 172 178 184 164 165 184 186 173 173 177 182 179 178 195 198 195 206 174 157 182
136 148 132 104 33 3 46 34 36 87 258 326 227 201 206 246 229 204 212 207 193 195 199 198 196 200 211 216 212 218 207 176 172 173 167 160 160 162 165 174 181 172 170 171 162 162 166 168 172 174 174 176 176 174 174 176 176 176 176 173 170 171 171 165 161 160 162 165 163 168 176 176 178 179 178 189 188 174 183 185 173 178 183 175 174 186 186 186 195 196 196 195 197 199 179 181 230
144 144 144 121 54 318 42 43 202 232 212 239 262 205 209 259 249 206 216 211 197 201 205 198 194 193 200 211 208 211 215 180 173 177 171 163 164 163 165 177 183 170 169 168 159 160 165 168 174 175 173 174 175 175 177 176 177 179 179 176 172 173 173 171 171 167 165 170 172 173 178 180 183 186 186 191 189 187 195 192 183 182 176 174 180 189 195 197 203 200 197 198 201 202 187 204 259
148 152 172 148 135 174 152 167 189 238 172 91 110 177 199 275 268 193 210 217 206 201 205 201 196 194 195 204 204 205 213 188 175 179 177 168 168 165 165 177 183 171 166 164 157 160 165 168 175 175 174 177 177 178 178 178 180 183 184 180 176 176 173 171 175 175 172 178 183 183 183 185 187 188 192 193 189 195 204 198 189 188 186 189 194 197 199 187 179 188 192 180 197 218 215 242 267
159 165 181 180 174 165 160 170 151 138 189 93 98 170 193 231 268 273 245 242 213 192 196 194 192 194 191 196 201 203 211 197 178 180 180 170 169 167 166 175 180 170 165 162 160 163 166 169 175 176 177 179 178 180 180 179 182 186 189 186 181 178 174 173 176 176 177 179 188 192 188 188 190 190 193 193 191 198 201 200 199 202 203 201 206 208 200 191 192 204 208 198 204 230 248 259 262
173 164 172 207 186 139 124 160 151 146 181 160 157 209 217 211 274 281 272 284 224 178 185 185 184 188 185 190 197 200 208 201 186 181 178 172 169 166 166 173 175 168 165 164 163 165 167 170 175 178 179 178 179 182 183 182 184 186 189 188 187 184 180 180 175 172 178 183 190 192 189 192 194 195 195 192 197 203 200 203 204 206 213 208 203 198 188 197 218 217 219 225 218 222 261 270 265
185 193 199 209 163 129 113 114 139 153 146 143 189 246 241 259 280 266 257 296 300 170 184 180 177 183 184 190 194 194 203 200 189 183 176 170 170 168 169 172 171 167 166 165 165 166 168 171 174 178 180 178 179 183 186 186 186 188 191 191 191 189 185 184 175 171 181 190 195 193 190 194 194 199 202 191 195 203 199 200 201 204 216 213 203 197 192 204 221 216 220 236 222 221 256 258 261
153 211 207 196 130 113 117 107 144 200 183 52 306 271 233 286 270 243 238 262 280 276 199 178 173 180 185 191 193 193 199 195 186 181 173 168 169 168 169 170 170 170 170 166 165 168 170 172 174 177 179 179 180 184 187 188 187 189 193 192 192 194 191 186 179 177 183 191 197 196 194 197 195 198 199 188 190 200 196 193 194 203 217 214 205 202 200 205 215 217 223 240 240 242 254 244 252
202 209 185 169 142 120 113 114 165 186 151 74 319 309 256 235 253 232 216 224 228 260 236 181 172 178 185 189 191 193 196 190 179 166 158 169 169 167 168 167 167 170 172 168 166 168 170 171 174 176 179 181 182 184 187 190 190 191 194 193 193 197 197 192 188 188 189 192 196 195 193 199 198 195 194 193 198 203 202 198 196 204 213 210 205 209 212 209 214 224 223 234 248 252 254 248 248
255 284 358 153 144 142 140 124 164 147 125 160 308 323 258 228 243 226 213 212 202 211 239 210 181 179 182 183 187 193 191 181 167 129 78 90 123 147 163 167 169 171 171 169 167 167 169 171 174 176 178 181 184 186 187 190 192 193 195 195 196 200 200 195 193 193 196 195 193 190 194 201 199 195 194 198 205 206 206 206 203 207 209 206 205 213 221 215 214 225 223 231 248 248 251 254 252
252 280 275 177 114 102 130 191 180 130 125 161 153 243 255 242 229 219 211 204 198 196 199 254 208 180 180 182 186 186 141 77 101 111 82 56 57 63 88 117 149 156 156 163 166 166 168 170 173 176 178 180 184 187 188 190 192 193 194 195 198 201 198 195 196 199 202 201 196 193 199 206 205 204 203 206 209 206 206 207 205 210 213 208 210 216 224 218 214 223 224 230 245 246 248 252 252
198 200 250 216 136 107 108 202 212 147 131 149 149 204 259 276 249 209 193 186 204 190 164 216 289 191 191 183 157 129 101 92 114 127 133 103 75 83 97 90 101 123 127 142 159 161 165 169 172 177 182 184 186 188 189 189 191 196 197 194 196 200 200 200 202 203 202 202 202 200 205 213 212 209 209 210 209 204 208 210 208 214 217 216 219 219 220 218 219 227 226 228 240 248 253 252 246
Height
783 784 785 786 786 787 788 789 804 805 805 820 818 817 810 799 793 789 793 789 789 784 775 778 779 779 786 795 799 798 799 801 804 815 827 818 812 818 818 820 821 821 822 822 822 822 823 824 825 826 826 827 827 828 828 828 829 829 830 831 831 832 832 833 834 834 834 835 836 836 837 837 837 838 839 838 838 839 840 841 842 842 842 843 843 844 845 844 845 846 846 847 847 847 848 848 849
783 785 785 786 785 790 793 791 809 813 812 824 820 817 807 794 793 794 795 790 789 781 774 777 779 781 784 787 788 793 803 801 794 801 810 811 815 819 819 821 820 821 822 821 822 822 823 824 825 825 826 827 827 828 828 828 829 830 831 831 832 832 832 834 834 835 835 835 836 837 838 838 838 838 839 839 839 840 841 842 843 843 844 844 845 845 846 846 846 847 847 848 848 849 849 850 850
784 785 785 787 787 789 793 795 811 819 821 828 823 813 801 798 797 793 789 785 781 774 775 778 781 784 785 793 794 801 813 805 795 799 807 813 817 818 821 821 820 822 821 821 822 822 823 824 825 825 826 827 828 829 829 829 830 831 832 832 833 833 833 834 834 835 835 836 837 837 838 838 838 839 840 840 840 841 842 843 844 844 845 846 846 847 847 847 847 848 848 849 849 850 850 851 851
783 785 786 786 790 793 799 805 813 818 825 828 822 809 800 800 795 790 784 781 777 773 778 781 788 785 786 802 802 804 813 808 802 802 808 814 815 818 820 820 821 821 821 821 822 823 824 825 826 826 827 828 829 829 829 830 830 831 832 833 833 833 834 834 835 835 836 837 837 838 838 839 839 839 840 840 841 842 843 844 845 845 846 847 847 847 848 848 848 849 850 850 851 851 851 852 852
783 785 785 785 795 800 803 811 813 817 822 820 817 807 798 794 791 789 784 780 776 776 780 783 793 787 786 798 799 807 812 808 806 804 808 813 815 818 819 820 821 821 821 821 822 824 825 826 827 827 828 829 829 829 830 830 831 831 832 833 834 834 834 834 835 836 837 838 838 839 839 840 840 841 841 841 842 843 844 845 846 846 847 848 848 848 849 849 849 850 851 851 852 852 852 853 853
783 785 784 784 793 798 806 816 817 818 814 810 811 804 794 790 789 789 785 782 777 776 779 783 791 791 794 796 795 804 805 804 807 806 809 813 816 817 818 820 820 821 821 822 823 824 826 827 827 828 829 829 829 830 830 831 831 831 832 833 834 834 835 835 836 837 838 838 839 839 839 840 841 841 842 842 843 844 845 846 847 848 848 848 848 849 850 850 850 851 851 852 853 853 853 854 855
782 786 788 791 795 798 812 819 817 817 809 805 807 800 791 788 788 788 789 788 785 780 780 785 786 793 803 799 799 801 799 803 804 807 810 812 816 816 818 819 820 821 822 823 824 825 826 827 828 829 828 829 829 830 831 831 831 831 832 833 833 834 835 836 837 838 838 839 840 840 840 841 841 842 843 844 845 846 846 847 848 849 849 849 849 850 851 851 851 851 852 853 854 854 855 855 856
781 788 791 799 806 806 814 817 815 814 807 803 802 796 790 787 786 789 792 792 791 788 786 788 785 798 808 800 807 805 800 805 804 809 811 812 816 816 819 819 820 821 822 823 824 826 827 828 828 828 828 829 829 830 831 831 832 832 832 833 833 835 836 837 838 839 839 839 840 840 841 842 842 843 843 845 846 847 848 848 849 850 850 850 850 851 852 852 852 852 853 854 855 855 856 856 857
781 788 793 803 812 812 815 818 815 810 807 802 799 795 788 784 785 788 792 792 790 790 791 790 789 802 809 804 810 806 802 808 807 811 812 814 816 816 819 819 821 821 823 824 825 826 827 828 828 829 829 829 830 830 831 831 832 832 833 833 834 835 836 838 839 839 839 840 841 841 841 842 843 844 845 846 847 848 849 850 850 851 851 851 851 852 852 852 853 853 854 855 856 856 857 857 858
785 790 796 806 814 817 819 819 815 810 806 801 798 792 786 784 785 788 792 793 790 793 793 789 793 802 808 810 812 807 807 809 809 812 813 815 816 817 819 820 821 821 823 824 825 826 827 828 828 829 829 829 830 830 831 831 832 833 834 834 835 836 837 838 839 839 840 841 842 842 842 843 844 845 846 847 848 849 850 851 851 851 851 852 852 853 853 853 854 854 855 856 857 857 858 859 859
792 794 796 810 816 820 821 819 817 812 805 799 796 788 785 785 787 791 791 794 792 795 795 792 802 805 807 813 812 809 808 810 810 812 813 815 816 817 819 820 822 822 823 824 825 826 827 828 828 829 829 830 830 831 831 832 833 834 834 835 836 836 838 839 840 840 840 842 843 844 844 844 845 846 847 848 849 849 850 851 851 852 852 853 853 854 854 854 855 856 857 857 858 859 859 860 860
796 799 800 814 819 820 817 818 820 814 807 802 797 789 788 786 790 795 793 797 795 798 797 795 803 802 810 817 813 809 808 811 811 812 814 815 816 817 819 821 822 823 824 824 825 826 827 828 829 830 830 831 831 831 832 832 834 834 835 836 836 837 838 840 840 840 841 843 844 845 845 845 846 847 848 848 849 850 851 852 852 853 853 854 854 855 855 856 857 857 858 858 859 860 860 861 861
794 800 804 815 815 816 815 816 819 815 812 805 800 793 789 789 793 794 793 797 796 801 799 793 797 799 812 817 810 809 809 811 811 813 814 815 817 818 820 821 823 824 824 825 826 827 828 829 829 830 831 831 831 832 832 833 834 835 836 836 837 838 839 840 841 842 842 843 845 845 846 846 847 848 848 849 850 851 851 852 852 853 854 855 856 856 857 857 858 858 859 859 860 860 861 862 862
790 796 801 813 810 812 814 817 818 817 815 804 799 795 791 793 793 791 792 799 799 799 795 788 792 801 813 815 814 813 810 811 812 813 814 815 818 818 821 822 823 824 825 826 827 827 828 829 830 830 831 831 832 832 833 834 835 835 836 837 838 839 839 841 842 844 844 845 846 846 847 848 849 850 850 850 851 852 853 853 854 855 856 856 857 857 858 859 859 860 860 860 861 861 862 862 863
785 792 797 811 811 813 814 816 815 815 814 803 799 796 795 794 790 791 792 799 799 788 788 790 791 803 813 815 818 812 808 811 811 814 815 817 818 819 821 822 824 824 826 827 827 828 828 829 829 830 831 831 832 832 834 834 835 836 837 838 839 839 840 842 843 845 846 847 848 847 847 848 850 851 852 853 853 853 854 855 855 856 857 857 858 858 859 860 861 861 861 862 862 862 863 863 863
780 787 801 812 812 815 814 812 812 814 812 802 798 795 799 797 790 794 789 789 795 785 788 795 792 800 807 809 810 806 807 811 812 814 815 817 819 820 822 822 824 825 826 827 828 829 829 830 829 830 831 832 833 833 834 835 837 837 838 839 840 841 842 843 844 846 848 849 850 850 849 849 850 851 853 854 854 854 854 855 856 857 858 858 859 860 861 861 862 862 862 863 863 863 864 864 864
778 787 804 813 811 812 811 808 809 810 807 802 799 796 801 801 793 791 783 783 792 791 792 794 792 795 800 803 804 803 807 810 812 815 816 818 819 821 823 823 825 825 827 828 829 830 830 831 830 831 832 833 833 834 835 837 838 838 840 841 841 842 843 844 845 847 849 850 852 852 853 852 852 852 853 854 855 855 856 857 857 858 859 860 861 861 862 863 863 863 863 864 864 864 864 865 865
784 796 807 811 807 806 802 801 800 799 802 802 799 797 799 803 798 790 788 791 793 794 795 793 793 795 797 800 803 804 808 811 812 815 816 819 820 822 824 824 826 826 828 829 829 830 831 831 832 832 833 834 834 835 836 837 839 840 841 842 843 844 844 845 846 847 849 851 852 854 855 855 855 856 856 856 857 857 858 859 859 860 861 861 862 863 863 864 864 864 864 864 864 864 865 865 866
791 801 808 807 800 798 794 792 793 793 797 799 797 795 796 799 797 791 797 802 797 800 801 797 799 800 800 801 803 806 807 811 813 815 817 818 820 822 823 825 826 827 828 829 830 831 832 832 833 833 834 835 835 836 837 838 840 841 842 843 844 845 845 847 847 848 850 852 853 854 856 856 857 858 858 858 858 859 860 860 861 861 862 863 863 864 864 865 865 865 865 865 865 865 865 865 866
791 799 810 807 794 794 791 788 790 788 790 796 796 794 795 796 792 793 800 804 801 804 803 801 806 805 803 803 803 806 807 810 813 814 817 818 821 822 824 825 826 828 829 829 830 831 832 833 833 834 835 835 836 837 838 839 840 842 843 844 845 846 847 848 849 850 851 853 854 855 856 857 858 858 859 859 860 860 860 861 862 862 863 863 864 865 865 865 866 866 866 866 866 865 866 866 865
793 797 807 804 793 794 790 786 787 783 786 792 794 795 800 794 790 794 799 806 807 803 800 799 804 803 803 804 803 805 807 810 811 813 816 818 821 823 824 825 827 828 828 828 830 832 833 833 834 834 835 836 837 838 839 840 841 843 844 845 847 847 848 850 851 852 853 853 854 856 857 857 858 859 860 860 861 861 862 862 863 863 864 864 865 865 866 866 866 866 866 866 866 866 866 866 865
795 796 795 792 791 795 788 783 783 781 784 789 793 796 797 792 792 795 798 807 806 797 795 795 798 800 801 803 803 805 807 809 810 812 815 818 820 822 824 825 827 828 828 829 831 832 833 834 835 835 836 836 837 838 839 841 842 843 845 846 847 849 850 851 852 853 854 855 855 856 857 858 859 860 860 861 862 862 863 863 864 865 865 865 865 866 866 866 866 865 865 865 865 865 865 865 865
789 792 786 785 787 789 785 782 780 780 785 791 793 791 790 794 798 795 795 800 795 788 790 792 795 797 799 802 803 805 807 808 810 812 815 818 820 822 824 825 826 828 829 830 831 833 834 834 836 836 837 837 838 839 840 842 843 844 845 847 848 849 851 852 853 853 854 856 857 858 858 859 860 861 861 862 862 863 863 864 865 865 865 866 866 866 866 866 866 865 865 865 864 864 864 864 864
782 790 785 781 782 783 781 779 779 780 785 788 787 788 791 798 800 795 795 794 787 786 788 790 794 797 799 802 803 805 806 807 809 811 814 817 820 822 824 825 826 828 829 830 832 833 834 835 836 837 837 838 839 840 841 842 844 845 846 847 849 850 851 853 853 854 855 856 857 858 859 860 861 861 862 863 863 863 864 865 865 865 866 866 867 867 867 866 866 865 865 864 864 863 863 863 864
781 787 784 779 781 781 778 778 781 781 784 784 784 791 795 794 795 796 796 791 786 786 788 791 795 798 801 803 804 804 805 806 808 810 814 817 820 822 824 825 827 828 829 830 832 833 834 835 836 838 838 839 840 840 842 843 844 846 847 848 849 851 852 853 854 855 856 857 858 859 859 861 861 862 863 863 864 864 865 865 865 866 866 867 867 867 866 866 866 865 864 864 863 863 863 864 865
779 781 783 783 786 782 781 785 787 787 787 787 789 797 797 792 795 799 795 789 786 786 791 794 796 800 802 803 804 803 804 805 807 809 813 817 820 822 824 826 827 828 829 830 831 833 834 836 837 838 839 840 841 841 842 844 845 846 847 849 850 851 852 854 855 856 856 857 858 859 860 861 862 863 863 863 864 865 865 866 866 867 867 867 867 866 866 866 866 865 864 863 863 862 863 864 865
774 777 783 787 788 785 788 794 792 791 791 793 796 800 799 793 799 806 796 787 786 789 795 796 798 802 802 803 803 802 804 804 806 809 812 817 819 821 823 825 827 828 829 830 831 833 834 836 837 839 840 841 841 842 843 844 845 847 848 849 850 851 852 854 855 856 857 857 858 859 860 862 862 863 863 864 864 865 865 866 867 867 867 867 867 867 867 867 866 865 864 864 863 862 863 864 864
772 778 786 790 790 791 795 797 795 793 794 796 797 799 800 797 801 803 793 787 787 792 798 798 799 801 801 803 803 803 804 804 806 810 812 816 818 820 822 824 826 828 829 830 831 833 834 835 837 839 840 841 842 843 844 845 846 847 848 849 850 851 852 854 855 856 857 858 859 859 861 862 863 863 864 864 865 865 866 866 867 867 867 867 867 867 867 867 866 865 865 864 863 863 863 863 864
775 779 792 798 794 797 799 797 798 797 797 793 793 804 808 804 803 797 789 789 789 793 799 799 800 801 801 802 803 804 804 804 806 809 812 815 817 820 822 824 826 828 829 830 832 833 834 836 837 839 840 842 843 844 844 845 846 847 848 849 850 852 853 854 855 856 857 858 859 859 861 862 863 864 864 865 865 866 866 866 867 867 867 867 867 867 867 867 866 865 865 864 864 863 863 863 863
780 782 792 802 804 807 801 797 800 801 800 790 792 818 822 808 802 793 789 791 792 797 800 800 801 800 802 802 803 805 804 805 806 809 812 814 817 819 821 824 826 828 829 830 832 833 835 836 838 839 840 842 843 844 845 845 847 848 849 850 851 852 853 854 855 856 857 858 859 860 861 862 864 864 865 865 866 866 866 866 867 867 867 867 867 867 867 866 866 865 865 864 864 864 863 863 864
784 788 792 803 813 815 804 799 803 805 803 792 797 823 825 810 802 793 789 790 793 799 801 800 801 801 802 803 804 806 804 805 806 808 812 814 817 819 821 824 826 828 829 831 832 833 835 836 838 840 840 842 843 844 845 846 847 848 849 850 851 853 853 854 855 857 858 858 860 861 862 863 864 865 865 866 866 867 867 867 867 867 867 867 867 867 867 866 866 865 865 865 864 864 863 863 864
784 795 806 808 812 816 809 803 804 808 805 797 803 822 823 811 802 793 788 789 793 799 801 800 801 802 803 804 805 806 805 805 807 809 811 813 816 818 821 824 826 828 829 831 833 834 836 837 838 840 841 842 843 844 845 847 848 849 850 851 852 853 854 855 856 857 858 859 860 861 862 863 864 865 865 866 866 867 867 867 868 868 868 867 867 867 867 866 866 866 865 865 865 864 864 863 864
787 796 813 812 812 818 816 809 806 807 807 803 807 818 821 811 799 792 788 789 793 798 800 800 801 802 803 805 805 806 807 806 807 809 810 812 815 818 821 823 825 828 830 831 833 834 836 837 839 840 841 843 843 845 846 847 848 849 850 851 853 854 854 855 856 858 859 860 861 861 863 864 864 865 865 866 867 867 867 868 868 868 868 868 868 867 867 867 866 866 866 866 865 865 864 864 864
795 797 809 808 809 817 817 814 808 806 810 808 808 813 814 806 797 792 789 789 794 798 800 800 801 803 803 804 805 806 808 808 808 808 809 811 815 818 820 823 825 827 830 831 833 835 836 837 839 840 841 843 844 845 847 848 849 850 851 852 853 854 855 856 857 858 859 860 861 862 863 864 865 865 866 867 867 868 868 868 868 868 868 868 868 868 867 867 867 867 866 866 866 865 865 864 865
797 799 807 809 809 813 814 813 808 807 814 813 813 817 812 803 798 795 791 790 795 798 799 800 801 803 804 804 806 807 808 809 808 807 809 811 814 818 820 822 825 827 829 832 833 835 836 838 839 840 842 843 844 846 847 848 849 850 851 852 853 854 855 856 857 858 859 860 861 862 863 864 865 865 866 867 867 868 868 868 869 868 868 868 868 868 868 868 868 867 867 866 866 865 865 865 865
788 792 801 809 811 812 809 805 802 803 816 820 817 820 815 806 802 798 793 792 795 797 797 799 801 802 804 804 806 807 808 808 807 807 809 811 814 817 820 822 825 827 829 831 833 835 836 838 839 841 842 843 845 846 847 848 849 851 851 852 854 854 856 857 858 859 859 860 861 862 863 863 865 865 866 867 867 868 868 868 869 869 869 869 869 869 869 869 868 868 868 867 867 866 865 865 865
781 791 800 806 810 812 806 802 800 797 813 824 816 816 815 807 804 800 795 795 797 798 799 801 802 803 804 805 806 807 807 806 805 807 809 811 815 817 820 822 824 827 829 831 833 835 836 838 840 841 843 844 845 846 847 848 849 851 852 853 854 854 856 857 858 859 859 860 861 862 862 863 864 865 866 867 867 868 868 869 869 869 869 869 869 869 869 869 869 869 869 868 867 867 866 866 866
778 791 800 806 808 809 808 804 803 801 811 822 816 816 817 810 806 800 796 799 800 799 800 801 801 803 804 804 806 806 805 804 805 806 808 811 815 817 819 822 824 826 829 831 833 835 837 838 840 842 843 844 845 846 847 848 849 851 852 853 854 855 856 857 858 859 860 860 861 862 862 863 864 865 866 867 867 868 868 869 869 870 870 870 870 870 870 870 870 870 869 869 868 867 867 866 866
777 788 798 809 807 808 814 809 806 809 815 823 821 820 822 820 816 806 801 803 801 799 800 800 800 802 804 805 805 806 805 805 806 807 808 811 814 817 819 821 823 825 828 831 833 834 837 838 840 842 844 845 845 847 847 849 850 851 852 853 854 855 856 858 859 859 860 860 861 862 863 863 864 865 866 866 867 868 868 869 869 870 870 870 870 870 871 870 870 870 870 870 869 868 867 867 867
777 786 798 808 806 807 818 815 811 813 816 822 825 825 826 826 824 814 807 808 805 802 802 799 798 799 801 802 802 804 806 806 807 807 807 810 813 816 819 821 823 825 828 830 832 834 836 838 840 842 843 845 845 847 848 849 850 851 852 853 854 856 857 858 859 860 861 861 862 863 863 864 865 865 866 866 868 868 868 869 869 870 870 871 871 871 871 871 871 871 871 871 870 869 868 868 868
777 784 797 805 803 802 809 813 813 814 818 820 824 833 833 826 828 823 813 810 808 805 804 801 799 796 797 799 800 801 804 805 806 807 807 809 812 815 818 821 822 825 827 829 831 833 835 837 839 841 843 844 845 846 848 849 850 851 852 853 855 856 857 858 859 860 861 862 863 864 864 865 865 866 866 867 868 868 869 869 869 870 870 871 871 871 872 871 871 871 871 871 871 870 869 868 868
783 785 790 795 798 800 806 812 815 823 829 822 822 839 841 826 827 829 821 815 812 808 807 805 802 798 797 800 800 800 802 802 803 805 806 808 811 814 817 820 822 825 826 828 830 832 835 836 838 841 842 844 845 846 848 849 850 851 852 853 854 855 857 858 859 859 861 862 863 863 865 865 866 867 867 868 868 868 869 869 869 870 870 871 871 871 872 871 871 871 871 871 871 870 870 869 868
790 783 779 786 794 800 808 810 813 826 831 820 818 835 843 834 830 828 822 820 816 811 809 807 804 801 800 800 798 799 801 801 802 803 804 807 810 812 815 818 821 824 826 828 830 832 833 836 837 840 841 843 844 845 847 848 849 851 851 853 854 855 857 857 858 859 860 861 862 863 864 865 866 867 867 868 868 868 868 869 869 869 870 871 871 871 871 871 871 871 871 871 871 871 870 869 869
788 776 774 786 793 800 807 807 812 820 822 821 820 826 838 839 830 821 819 823 821 815 811 808 805 802 800 800 797 796 799 800 801 803 803 805 808 811 814 817 820 823 826 827 829 831 832 835 837 839 841 842 844 845 847 848 849 850 851 853 854 855 856 857 858 859 860 861 862 862 863 865 866 866 867 867 868 868 868 869 869 870 870 871 871 871 871 871 871 871 872 872 871 871 871 870 870
777 768 772 782 787 794 799 806 814 815 822 835 831 825 837 839 825 816 817 823 824 818 812 808 806 803 800 800 797 794 796 797 798 800 802 804 807 810 812 815 818 821 824 826 828 829 831 834 837 838 840 842 843 845 846 848 849 850 851 852 853 855 856 857 858 859 860 860 861 862 863 864 865 866 867 867 868 868 869 869 870 870 870 871 871 871 871 871 871 871 872 872 872 872 871 871 870
765 762 771 779 784 789 795 807 815 818 828 839 831 825 837 838 825 821 822 821 820 816 810 805 804 802 800 798 797 794 794 795 796 797 800 802 805 808 811 814 817 819 822 825 827 828 831 833 836 838 839 841 843 844 846 847 848 849 850 851 852 853 855 856 857 858 859 860 861 862 863 864 865 866 866 867 867 868 868 869 870 870 871 871 872 872 872 872 872 872 872 872 872 872 872 871 871
757 767 776 788 797 795 800 808 813 829 840 833 823 818 828 835 826 819 816 810 806 807 807 804 801 801 799 797 796 795 794 794 795 796 797 801 803 806 809 813 815 817 820 823 825 827 830 832 835 837 839 840 842 844 845 846 848 849 850 851 852 852 854 855 856 858 859 860 861 862 863 864 864 865 866 866 867 868 868 869 870 870 871 871 872 872 872 872 872 872 872 872 872 872 872 871 871
755 773 781 804 822 813 815 822 823 842 848 831 820 814 823 836 824 809 804 796 795 799 800 800 799 800 799 795 794 794 794 793 793 795 796 799 801 804 807 810 813 815 818 821 823 826 829 831 834 836 838 839 841 843 845 846 847 848 849 850 852 852 853 854 856 857 858 860 861 862 863 864 864 865 866 866 866 867 868 868 869 870 870 871 871 872 872 872 872 873 872 872 872 871 871 871 871
754 769 779 810 840 836 836 841 838 845 842 826 820 819 828 831 810 798 796 792 791 791 790 792 794 796 796 794 793 792 792 792 792 794 795 796 799 801 804 808 811 813 815 818 821 824 827 830 833 835 837 838 840 842 844 846 847 848 849 850 851 852 853 854 856 857 858 859 861 861 862 862 863 864 865 865 866 866 867 868 868 869 870 870 871 871 872 872 872 873 872 872 872 871 871 871 871
759 769 778 803 834 845 849 848 841 842 835 822 818 823 833 826 802 791 790 786 784 784 784 787 788 791 792 790 790 791 790 790 790 792 794 795 796 799 802 806 809 811 813 816 819 822 825 829 831 834 836 838 839 842 843 845 846 847 848 850 851 852 853 854 856 856 857 859 860 861 861 861 862 863 864 865 866 866 867 867 868 868 869 870 870 871 871 872 872 872 872 872 872 872 872 871 871
757 758 765 783 803 818 834 841 840 841 835 826 825 829 831 823 803 788 785 781 776 777 779 781 784 786 788 788 789 790 790 788 788 790 791 793 795 797 800 804 807 809 811 814 817 820 824 827 830 832 835 837 838 840 842 844 845 846 848 849 850 852 853 854 855 856 857 858 859 860 860 861 861 863 863 864 865 866 866 867 867 868 868 869 869 870 870 871 871 872 872 872 872 872 872 872 872
754 747 761 777 776 784 807 820 819 827 834 829 827 825 815 806 795 783 782 780 773 773 775 777 782 783 785 789 789 789 789 787 787 789 790 791 793 796 799 802 805 808 810 813 815 818 822 825 828 831 833 835 837 839 841 842 844 846 847 848 849 851 852 854 855 856 856 857 859 859 860 860 861 862 863 864 864 865 866 867 867 868 868 868 869 869 870 870 871 871 871 871 872 872 872 872 872
756 755 766 764 753 766 799 815 810 817 833 830 823 820 809 803 797 784 781 782 775 774 774 775 780 781 783 787 787 787 787 786 786 787 788 790 792 795 798 801 804 806 808 811 813 816 820 823 826 830 832 834 836 838 840 842 843 844 846 847 848 850 851 853 854 854 855 856 858 858 859 860 861 862 863 863 864 865 866 866 867 867 868 868 869 869 870 870 870 871 871 871 871 871 872 872 872
756 764 758 747 749 759 781 812 823 823 833 832 825 822 817 816 809 789 783 785 780 776 774 774 777 779 782 784 783 784 784 783 784 784 786 788 791 794 797 800 802 805 807 810 813 815 818 822 825 828 831 833 835 837 839 841 842 843 845 846 847 849 850 852 853 853 854 856 857 857 858 859 860 861 862 863 864 864 865 866 866 867 868 868 869 869 870 870 870 870 870 871 871 871 871 871 871
741 748 740 747 775 781 779 800 817 822 835 838 831 824 817 816 808 792 787 786 781 778 775 774 776 778 780 781 781 782 781 782 783 784 786 787 789 793 795 799 801 804 807 809 812 816 818 821 824 826 829 831 834 836 838 840 841 842 844 845 846 848 849 851 852 853 854 855 856 856 857 858 859 860 862 863 863 864 864 865 866 866 867 868 868 869 869 870 870 870 870 870 870 870 871 871 871
734 738 739 745 765 777 780 786 793 809 830 837 835 832 820 805 793 787 786 782 779 780 778 775 775 775 777 778 780 780 780 782 783 787 790 789 791 794 795 798 800 803 806 808 812 815 818 821 824 826 829 830 833 835 837 838 840 841 843 844 845 847 848 849 851 852 853 854 855 856 856 857 858 860 861 862 862 863 863 864 865 866 866 866 867 868 869 869 869 869 870 870 870 870 870 870 870
748 753 756 754 756 763 773 778 778 793 818 831 839 840 818 790 778 779 780 777 777 777 777 776 774 772 774 774 776 779 783 786 788 790 792 791 792 796 797 799 801 802 805 808 811 814 817 820 823 825 827 829 831 833 835 837 839 841 842 842 844 845 847 848 849 851 852 853 854 855 856 857 857 859 860 861 861 862 862 863 864 865 865 865 866 867 867 868 868 869 869 869 869 869 870 870 870
750 756 756 756 760 767 783 792 780 778 800 815 826 833 814 784 772 773 773 773 773 773 774 775 774 772 772 771 774 781 785 788 788 787 788 790 792 796 798 801 803 803 804 809 812 813 816 819 822 824 826 828 830 831 833 835 837 839 840 841 843 844 845 847 848 849 850 851 853 854 855 856 856 858 858 859 860 861 861 862 863 863 864 865 865 866 866 867 867 868 868 868 868 868 869 869 869